Wind_Speed
27 29 27 27 28 26 26 23 20 19 17 15 20 22 23 24 25 25 23 22 20 20 20 22 23 21 21 22 23 25 26 27 31 34 38 41 45 46 42 37 33 31 31 30 31 30 29 27 24 23 22 21 20 19 18 17 17 17 17 17 17 16 14 14 12 13 15 15 14 13 13 13 13 11 9 7 6 5 5 4 5 6 8 8 7
29 30 28 29 27 25 24 22 20 20 19 16 19 21 22 23 23 24 23 22 21 21 22 23 22 21 22 23 24 26 26 27 31 34 38 42 45 46 43 39 35 33 32 31 31 31 30 27 24 23 23 21 18 17 16 17 18 17 16 16 15 14 13 12 11 12 14 14 13 12 12 11 12 11 10 8 6 6 6 5 5 5 5 6 6
31 30 27 27 25 23 21 19 20 21 22 20 18 20 22 22 21 22 23 23 22 23 24 24 23 22 23 24 25 26 26 27 30 34 38 42 46 46 44 40 36 34 33 32 32 31 30 27 24 23 22 19 16 16 17 18 19 17 15 14 13 13 12 10 10 13 14 14 13 12 12 11 11 12 11 10 8 6 6 6 6 6 6 6 5
25 24 23 24 24 21 20 19 20 22 24 24 21 21 21 20 20 23 24 24 24 25 25 25 23 23 24 25 26 27 27 27 30 34 38 43 46 47 45 41 37 35 34 33 32 31 29 27 24 23 20 16 15 16 17 18 17 17 15 13 13 12 11 9 10 13 13 13 13 12 11 11 10 12 13 13 11 8 6 6 6 6 7 8 7
17 18 18 20 22 22 22 22 21 22 25 26 25 24 22 19 20 23 25 26 26 26 25 24 23 24 25 26 27 29 28 28 31 35 39 44 47 47 46 42 38 36 34 33 32 31 29 26 23 21 18 16 16 17 17 16 17 17 15 13 12 11 10 10 12 13 13 13 12 11 11 10 10 11 13 14 13 11 9 8 7 7 7 8 8
13 16 16 16 20 22 23 22 22 22 24 27 27 26 22 19 21 24 26 26 26 25 24 24 24 25 27 28 29 30 29 29 32 36 40 44 47 48 46 43 39 36 35 33 31 30 27 25 21 18 17 17 18 19 18 16 15 14 13 11 10 10 11 13 14 14 13 13 11 9 9 9 9 10 13 14 14 12 10 9 9 9 9 9 9
12 15 15 12 17 23 24 22 22 22 24 26 27 26 22 19 22 25 26 26 26 26 26 26 26 27 28 30 31 31 30 30 33 37 41 45 48 49 46 42 39 36 34 33 31 29 27 23 20 18 18 20 20 20 18 14 13 13 12 11 10 12 14 15 15 14 13 12 10 8 8 8 9 10 13 14 13 12 11 10 10 10 10 10 11
13 14 15 12 15 21 24 24 24 25 25 25 25 23 20 20 23 25 26 26 27 27 28 28 28 29 30 32 32 31 30 32 34 38 43 46 49 49 46 41 38 34 34 33 31 29 26 22 19 19 20 21 21 20 16 13 12 13 12 11 11 13 14 14 14 13 13 12 9 7 8 9 9 11 13 13 12 12 11 10 10 10 10 11 11
17 15 16 15 15 18 22 26 27 26 26 25 24 21 19 20 23 25 25 27 28 28 28 28 29 31 32 33 32 31 31 33 36 40 45 48 50 49 45 40 35 32 33 33 31 29 26 22 20 20 20 20 20 18 16 13 13 13 12 12 13 13 13 13 12 12 12 11 8 8 9 10 12 14 14 13 12 12 12 12 12 11 11 12 12
26 21 18 17 17 17 20 24 26 25 24 24 22 21 20 22 23 25 26 27 28 28 29 30 31 32 33 32 32 31 33 36 38 42 47 49 51 50 44 38 33 31 32 33 32 29 26 22 21 20 19 19 18 18 16 14 14 14 13 14 15 14 13 12 12 12 11 10 8 8 10 13 16 18 18 16 15 15 15 14 15 15 14 14 14
29 26 24 21 20 20 20 23 25 24 22 21 22 22 23 24 25 27 27 28 28 29 30 31 32 32 33 32 32 33 36 39 41 45 49 50 51 49 42 36 31 30 31 32 32 29 26 23 21 19 19 19 18 18 17 16 16 16 16 17 16 15 13 12 13 12 11 10 9 10 13 18 20 21 20 20 19 19 18 17 17 17 18 17 17
28 27 27 23 21 22 20 22 24 24 23 22 22 24 25 26 27 27 28 27 28 29 31 32 33 33 33 33 34 37 40 42 43 47 49 50 51 47 39 33 31 31 31 32 32 29 26 24 21 20 20 19 19 18 17 17 17 17 18 18 17 15 14 14 15 14 13 12 12 14 18 22 22 22 23 23 23 22 21 21 20 20 20 21 21
29 28 26 22 22 24 22 23 24 25 26 24 24 25 25 26 26 27 27 27 28 29 31 33 33 34 34 35 37 40 42 43 45 48 49 51 50 43 35 32 32 31 30 31 32 29 26 24 22 21 21 20 19 17 17 18 18 19 20 20 19 17 16 16 17 17 16 16 17 20 23 24 25 25 26 25 25 24 24 23 22 21 21 22 23
28 28 27 24 23 24 25 26 27 27 27 27 27 26 25 25 26 27 27 28 29 30 32 34 36 37 37 38 39 41 43 43 45 48 49 51 46 37 33 32 31 31 30 31 31 29 27 24 23 22 21 19 18 17 17 19 20 21 22 22 21 18 17 17 18 18 19 20 23 25 27 28 28 28 28 27 26 26 26 25 24 23 22 23 24
28 28 27 27 26 24 24 25 26 28 29 29 29 28 26 26 26 28 29 29 30 31 33 35 37 38 39 40 41 42 43 43 46 48 50 50 42 32 30 29 29 28 29 30 31 29 27 24 23 22 21 20 18 18 20 21 22 23 24 22 20 19 18 19 21 23 25 26 28 29 29 30 30 30 29 28 27 26 26 26 25 25 24 24 24
29 28 29 32 33 30 27 27 27 27 29 30 30 28 26 26 27 29 29 29 30 32 34 36 37 39 41 42 42 43 43 44 47 50 51 47 37 29 28 27 26 27 28 29 30 29 28 25 23 22 21 20 20 22 23 25 25 25 24 21 20 21 22 24 27 28 29 30 30 30 30 30 29 29 28 27 26 26 26 26 26 26 26 26 26
30 30 31 33 34 32 29 28 29 28 28 30 30 30 29 29 31 32 33 34 35 36 38 40 40 42 43 44 43 43 43 46 49 51 51 43 32 28 27 25 25 26 27 29 30 30 29 26 24 23 21 21 22 24 26 26 25 24 22 20 21 23 26 27 27 28 29 30 30 29 29 28 27 27 27 26 25 25 26 26 26 27 27 28 27
32 33 33 33 31 30 29 29 31 32 31 31 31 31 32 33 34 35 36 38 39 41 42 42 43 44 45 44 44 44 47 50 51 52 47 36 28 27 25 24 25 26 27 29 30 30 30 27 24 23 22 22 23 25 25 25 24 23 22 22 23 25 25 25 26 27 28 29 29 28 28 27 27 27 27 26 26 26 27 27 27 27 28 29 29
32 33 35 35 33 31 32 34 36 35 35 35 34 34 34 35 37 38 38 39 41 42 42 43 44 45 45 45 46 48 50 51 51 49 40 30 26 26 24 24 24 25 27 29 30 31 30 28 25 23 22 22 23 24 24 23 22 22 22 23 24 24 25 25 26 27 27 27 28 28 29 29 28 28 28 28 28 27 28 28 28 28 28 28 29
34 34 33 34 36 35 35 37 38 36 37 38 37 36 36 37 39 40 40 41 42 42 43 44 45 45 46 48 50 51 51 51 50 44 32 26 25 25 24 24 24 26 27 29 30 31 31 28 24 22 22 22 22 22 21 20 20 21 22 22 23 24 25 25 26 27 27 28 28 29 30 30 29 29 28 27 27 26 26 26 25 25 25 25 25
36 35 33 33 37 39 39 40 39 38 39 39 38 38 38 39 41 43 43 43 43 43 44 45 46 47 49 51 52 51 49 48 45 36 27 25 25 24 24 24 25 26 27 29 30 31 31 28 24 22 21 21 20 19 19 19 19 19 20 21 23 24 26 26 27 28 29 29 29 30 30 30 29 28 26 25 24 23 23 22 22 21 21 21 22
39 38 35 34 37 40 42 42 41 40 39 39 39 40 41 43 45 45 45 45 44 44 45 46 48 50 52 53 50 47 45 43 37 29 25 25 25 24 24 24 25 27 28 30 30 31 31 29 25 22 21 21 20 19 19 19 19 19 21 23 25 26 27 27 28 29 29 30 30 29 29 28 26 25 23 22 21 21 21 21 21 21 22 22 22
43 43 41 38 38 39 41 42 41 39 38 37 37 38 40 43 46 47 47 47 47 47 48 49 50 52 52 47 41 39 38 36 30 25 25 24 24 25 24 25 26 27 29 31 31 32 32 29 26 23 22 21 21 20 20 20 20 22 23 25 25 26 27 28 28 29 29 29 28 27 26 25 23 22 21 21 21 22 22 23 24 24 24 25 25
45 46 45 42 39 38 37 38 38 38 38 37 36 36 36 38 41 44 46 46 47 48 49 49 50 48 43 37 34 34 34 30 27 25 25 24 25 25 25 26 27 28 30 31 32 32 32 30 27 24 23 23 23 22 22 22 23 24 24 24 25 26 28 29 29 28 27 26 25 24 23 21 21 21 21 22 23 24 25 26 27 27 28 29 29
43 43 43 42 40 39 37 36 36 37 37 36 36 36 36 36 36 38 40 41 41 41 42 42 40 37 32 31 32 34 31 28 27 26 25 25 25 26 27 28 28 29 31 32 33 33 32 30 28 25 24 24 24 24 23 24 24 23 23 23 25 27 28 28 27 26 24 24 23 21 20 20 21 22 23 24 26 27 29 30 30 31 32 33 33
42 42 42 41 41 40 38 36 36 36 36 36 36 36 36 36 35 35 35 35 35 35 35 34 32 30 29 31 33 33 31 29 28 26 25 26 27 28 29 30 30 30 32 34 34 33 32 31 28 26 25 25 25 25 25 25 24 23 23 24 26 27 27 26 25 24 23 23 22 20 19 20 22 24 26 28 30 31 32 33 34 35 36 37 37
43 44 43 43 42 40 39 38 38 37 36 36 36 35 35 35 36 35 35 34 34 33 32 31 30 30 31 32 33 33 31 30 28 27 26 28 29 30 31 31 31 32 33 35 35 34 32 30 29 28 27 26 26 25 25 25 24 24 24 25 27 26 24 24 23 23 22 21 20 20 21 23 26 28 31 32 34 36 37 38 39 39 40 39 39
42 43 43 42 42 40 40 40 40 39 38 38 37 36 35 34 34 34 33 33 33 33 32 31 31 32 33 33 32 32 31 30 29 28 28 30 32 32 32 32 33 33 34 36 36 34 32 31 30 29 28 26 25 25 25 25 25 25 25 26 26 24 23 22 23 23 23 22 22 23 26 28 30 32 35 37 39 40 41 42 42 42 41 41 40
39 41 42 41 41 41 41 42 41 40 39 40 40 38 38 37 35 34 33 33 33 32 31 32 33 34 33 32 31 31 31 30 30 29 30 32 34 33 33 34 35 34 35 37 36 35 33 31 30 30 29 26 25 25 25 26 26 25 26 27 25 23 22 22 24 25 25 25 27 29 31 32 34 36 38 40 42 43 43 43 43 42 40 39 37
36 40 42 42 41 42 43 42 41 41 40 40 40 39 39 39 39 39 38 37 35 34 33 33 34 34 33 32 31 31 31 31 31 31 33 35 35 35 35 37 37 36 36 37 36 34 33 31 30 30 29 26 25 25 26 26 26 26 27 27 25 23 22 23 25 27 28 30 31 33 34 36 37 38 39 40 41 41 41 40 40 38 36 34 33
37 39 41 42 43 43 43 42 41 41 40 40 40 39 39 40 40 41 41 40 39 37 36 34 34 33 32 31 30 30 31 31 32 33 36 37 37 37 37 38 37 36 36 37 35 33 32 30 30 30 28 26 26 26 26 25 26 27 27 27 25 25 24 25 27 28 30 31 32 33 33 34 34 34 35 35 36 37 37 36 36 35 34 33 33
40 39 40 42 43 44 43 41 40 40 39 39 39 39 39 40 40 40 40 40 40 38 36 34 34 33 31 30 29 30 32 33 34 36 38 39 39 38 38 37 36 36 37 36 34 32 30 29 29 28 27 26 26 25 25 25 26 27 28 27 26 26 26 26 27 28 29 29 30 30 30 30 30 31 32 33 34 35 35 35 35 35 35 36 37
41 40 41 42 43 43 41 40 39 39 39 39 40 40 40 40 40 40 41 41 39 37 35 35 34 32 30 29 29 31 33 34 36 38 39 40 39 38 37 35 35 37 37 36 32 30 28 27 26 26 26 25 25 25 25 26 27 28 28 28 27 26 25 25 26 27 27 28 29 30 31 31 32 33 34 36 37 38 38 38 37 37 37 38 38
40 40 40 41 41 42 41 39 39 40 40 40 41 41 41 41 40 40 40 40 38 36 36 36 34 32 30 29 30 32 34 36 38 39 39 40 39 37 36 35 36 37 37 34 31 29 27 25 24 24 24 24 25 26 26 26 27 29 29 29 29 28 26 26 27 27 28 30 31 33 34 35 36 38 39 41 42 43 43 44 43 42 42 42 42
40 40 40 41 41 42 43 43 43 43 43 42 42 42 41 41 40 39 38 38 38 38 38 37 34 32 31 30 32 34 36 37 38 39 39 39 39 37 36 36 36 36 35 32 29 28 27 25 24 23 24 25 26 27 28 28 28 29 30 30 31 30 30 30 31 31 33 34 36 37 39 40 41 42 43 44 45 46 47 48 48 47 46 46 46
43 43 43 44 44 43 44 45 44 43 42 41 41 42 42 41 41 40 40 40 41 41 40 37 33 31 31 32 35 36 37 37 38 39 39 39 39 38 37 37 36 35 32 30 28 28 27 26 25 25 25 26 27 28 29 30 30 31 31 32 33 33 34 34 35 36 38 39 40 41 42 43 44 45 46 47 48 50 51 51 51 50 49 48 49
41 42 43 46 46 44 44 44 43 42 41 39 37 38 41 41 42 43 43 43 43 41 38 35 33 32 33 35 36 37 37 37 38 38 38 39 39 39 38 37 36 33 31 29 29 29 28 28 28 28 27 28 29 30 31 32 33 34 35 35 36 36 36 37 38 40 41 42 42 43 44 45 46 46 48 50 52 53 54 55 54 53 52 52 52
37 39 43 46 46 45 45 46 45 44 44 42 40 41 43 44 44 43 42 42 42 40 37 35 34 35 36 37 37 38 38 38 38 38 38 39 39 39 38 37 35 32 30 30 30 30 31 30 31 31 31 31 32 32 33 34 35 37 38 39 39 39 39 40 41 42 43 44 44 45 47 48 48 49 50 53 55 56 58 58 58 57 56 55 56
36 40 43 44 44 44 45 47 48 48 48 47 46 45 44 44 43 41 40 40 40 39 38 36 37 39 39 39 38 39 39 37 36 37 38 39 39 39 38 37 35 32 31 31 32 32 33 33 33 33 34 35 35 36 36 37 38 39 41 41 41 41 42 42 43 44 45 45 46 47 48 50 51 52 54 56 58 59 61 61 61 60 59 59 59
36 38 40 42 43 43 44 45 48 49 49 48 47 45 43 41 40 38 37 38 38 38 38 38 40 41 41 41 40 39 38 36 36 37 38 39 39 39 38 37 35 33 33 34 34 35 35 36 36 36 37 38 39 40 40 40 41 42 43 43 43 44 45 45 45 46 47 47 48 49 50 51 53 55 57 59 61 63 63 64 63 62 62 62 63
35 35 39 41 41 42 42 42 43 43 44 44 44 43 42 40 39 38 37 36 36 36 37 38 40 41 41 40 40 39 38 37 37 37 38 39 39 39 38 37 36 36 36 37 37 37 38 39 39 40 40 41 42 43 44 44 45 45 46 47 46 47 48 49 48 49 49 50 50 51 52 53 56 58 61 63 65 66 66 66 65 65 65 65 65
37 36 37 38 38 39 40 40 40 40 41 41 42 42 42 42 42 41 40 38 37 37 37 37 38 39 40 40 40 40 40 39 39 38 38 39 39 39 39 38 39 39 39 39 39 40 41 42 43 43 43 44 44 46 47 47 48 49 50 50 50 50 51 52 53 52 51 52 53 54 55 56 59 62 65 68 69 69 68 68 67 68 68 68 67
41 40 38 37 37 37 38 40 41 42 42 43 43 44 44 45 45 46 45 44 44 43 43 42 42 43 44 44 44 44 43 41 40 39 39 39 39 40 40 41 42 42 42 42 42 44 45 46 46 47 47 47 47 48 49 49 50 51 52 53 54 54 54 56 57 56 55 54 55 57 59 60 62 65 69 71 72 71 70 70 70 71 71 70 69
42 43 42 42 41 40 39 40 42 43 44 44 45 45 45 45 46 47 47 47 47 48 48 48 48 48 49 48 48 46 44 42 40 40 40 41 41 42 43 44 44 44 44 45 46 47 48 48 49 50 50 50 50 51 52 52 52 53 54 56 57 57 58 59 60 61 59 58 57 59 63 65 67 70 73 74 74 73 73 73 73 74 73 71 70
44 44 44 46 47 47 46 47 47 48 48 47 47 47 46 46 46 46 46 46 47 48 48 49 50 50 50 49 48 46 44 42 42 42 43 44 45 46 46 47 47 47 48 49 49 50 50 51 51 52 52 53 53 53 54 55 55 56 57 57 58 59 60 61 63 64 63 62 61 61 65 70 72 74 76 77 76 75 75 76 76 76 75 74 72
47 47 48 49 51 52 53 53 53 53 53 53 52 51 50 50 49 49 48 48 47 48 48 49 49 49 49 49 47 46 45 44 45 46 47 48 49 49 50 50 50 50 51 51 51 51 52 52 53 54 55 56 56 56 56 57 58 59 59 60 60 61 62 63 64 65 66 65 64 64 68 73 76 77 78 79 79 78 78 79 79 78 77 77 75
48 48 50 52 53 54 55 55 55 55 55 55 54 54 53 53 52 52 51 50 50 50 51 51 50 50 50 49 48 47 47 47 48 49 50 51 52 52 52 52 52 52 53 53 53 53 53 54 55 56 57 58 58 58 59 60 61 61 62 62 62 63 63 64 66 67 68 67 67 68 72 77 80 80 81 81 81 81 82 82 82 81 80 80 79
50 50 52 53 54 54 55 56 57 57 57 56 56 56 56 55 55 55 55 55 55 55 54 53 52 51 50 49 49 49 49 49 50 51 53 54 54 55 55 54 54 54 54 54 55 55 55 56 57 58 59 60 61 62 62 63 64 64 64 64 64 65 65 66 67 68 69 70 71 74 77 81 83 83 83 83 84 84 85 85 85 84 84 84 83
48 49 52 54 55 55 55 56 57 58 58 58 58 59 58 58 58 59 59 60 59 58 57 55 54 53 52 51 51 51 51 52 53 54 55 55 56 56 56 55 55 55 55 55 55 56 57 58 59 61 62 63 64 64 65 66 66 66 66 67 67 68 68 68 68 70 71 74 77 81 83 84 85 84 84 85 86 86 87 87 87 87 87 87 86
48 49 52 55 56 56 57 58 59 60 60 61 61 62 62 62 62 62 63 63 62 61 59 57 56 55 54 53 53 53 54 55 56 56 56 56 56 56 56 55 55 56 56 56 57 58 59 60 62 63 65 66 66 66 67 67 67 68 69 69 70 70 70 70 70 72 76 79 83 85 85 85 85 85 86 87 87 87 88 88 88 89 90 89 88
52 54 55 56 57 58 59 60 61 62 63 63 64 64 64 63 63 63 64 64 64 63 61 59 58 57 55 54 55 56 57 57 58 57 57 56 56 56 56 56 56 57 57 58 59 61 62 64 65 67 68 68 68 68 68 69 69 70 70 71 71 71 71 72 74 77 80 84 86 87 87 86 87 88 88 88 88 88 89 89 90 91 92 91 90
Wind_Direction
277 286 286 280 285 294 295 290 279 258 245 262 273 273 276 278 279 278 276 275 270 266 268 269 270 275 285 295 304 313 317 323 333 338 341 342 344 345 340 333 330 327 326 325 324 325 326 326 321 316 310 306 304 301 300 303 308 311 315 314 312 311 312 317 322 332 338 339 340 342 342 342 343 343 337 329 325 325 327 321 301 286 280 277 278
272 281 283 277 282 293 294 285 273 257 240 247 266 271 275 278 281 279 273 273 270 268 267 266 270 278 287 297 307 313 315 323 332 335 338 341 343 343 339 332 329 328 327 326 325 324 324 322 317 311 306 302 298 298 302 306 310 313 315 311 308 308 310 315 320 330 337 340 341 343 347 347 346 346 341 331 319 309 305 305 304 299 292 284 277
270 279 280 274 281 295 294 280 267 257 241 239 256 267 272 276 282 279 273 270 268 267 265 265 272 281 289 300 308 311 313 321 328 331 335 339 341 342 337 331 328 327 326 326 324 322 321 319 313 307 301 297 298 303 306 307 310 315 316 310 307 305 306 310 317 327 336 339 341 342 347 350 347 347 345 340 332 320 307 299 291 286 283 281 278
278 281 275 270 282 295 298 288 269 256 247 243 250 261 267 274 280 278 274 270 266 265 265 268 275 283 293 302 307 308 311 318 323 327 332 336 340 340 335 329 326 327 326 324 322 320 319 316 310 304 299 298 303 308 308 307 309 313 314 309 304 301 302 307 314 324 333 338 339 339 343 347 344 342 343 340 337 335 326 314 302 291 282 276 273
285 275 268 273 283 290 295 292 275 260 254 252 254 260 264 271 277 278 274 269 266 266 268 271 277 286 296 304 306 306 308 312 318 323 328 334 337 338 334 327 325 326 325 322 321 320 318 313 308 303 298 300 306 310 308 301 301 307 311 307 300 297 302 308 313 318 326 333 336 334 337 342 340 338 338 338 335 334 331 324 314 303 296 287 278
280 265 268 283 290 291 293 287 277 266 260 259 259 260 263 269 276 276 272 269 268 269 270 272 278 288 298 303 304 305 306 307 313 320 325 331 335 336 333 326 324 325 325 323 321 320 318 312 308 303 298 300 304 310 307 297 297 306 309 305 299 299 304 308 311 313 318 326 330 331 335 339 338 334 334 334 331 328 326 323 317 309 302 295 290
262 258 267 280 282 286 290 283 276 271 266 265 263 260 262 269 273 272 270 270 270 270 271 273 280 290 298 302 303 304 303 303 309 317 323 328 332 333 331 325 324 326 325 324 322 321 318 313 308 302 298 298 302 307 305 298 299 303 302 301 297 298 302 305 308 309 314 321 324 326 331 335 334 331 330 330 327 321 319 319 316 311 305 297 291
249 250 255 260 267 274 279 278 276 274 270 266 263 261 262 267 268 267 268 270 271 272 273 277 283 292 298 302 304 303 300 300 306 314 321 326 330 331 329 324 324 326 326 325 324 322 319 313 305 299 297 298 303 305 301 294 294 296 298 301 300 301 304 306 307 308 313 318 317 317 322 326 331 333 332 329 325 319 313 313 313 311 309 304 296
253 249 247 247 254 261 265 271 278 279 273 267 264 263 263 265 264 265 267 270 272 274 275 279 287 294 300 302 303 300 296 298 305 313 320 325 328 329 326 324 325 327 328 327 326 324 320 312 302 299 300 303 304 302 295 287 287 290 296 307 309 308 308 309 310 310 313 314 311 309 314 322 328 331 330 327 323 319 312 307 305 304 303 303 303
255 248 246 244 245 250 254 264 279 283 273 266 265 265 264 261 262 265 268 271 273 274 276 281 289 296 300 301 299 295 294 298 304 312 319 324 327 327 325 323 325 329 330 329 328 326 321 312 304 303 305 305 302 297 289 282 282 286 296 309 311 307 306 310 316 318 315 311 306 304 311 319 322 322 321 318 315 313 312 307 302 297 294 294 297
250 246 247 250 246 244 244 256 276 280 270 266 264 263 263 263 266 269 270 272 273 275 278 284 291 296 299 298 293 290 292 297 303 312 319 323 326 326 322 322 325 329 331 331 330 328 321 314 308 305 303 301 298 294 287 281 283 289 298 308 310 307 307 313 321 324 319 311 303 302 310 315 316 316 314 311 309 307 306 305 302 296 291 288 290
246 249 252 254 246 239 240 252 270 273 267 266 265 266 267 268 269 270 272 274 276 278 281 286 291 294 296 294 290 289 291 296 303 312 318 322 325 323 319 320 325 328 330 331 331 328 322 316 309 302 298 295 294 292 287 284 287 293 299 305 308 308 311 317 321 322 318 311 304 303 307 310 310 310 309 307 306 304 302 301 300 295 290 286 286
247 252 257 256 242 235 241 255 267 270 267 265 266 269 271 273 273 273 275 277 279 280 283 286 289 291 292 292 291 289 291 296 304 312 317 320 323 320 318 321 324 326 329 329 329 327 322 316 310 302 295 292 291 290 289 290 292 295 298 302 307 311 314 315 315 315 312 308 304 303 303 304 305 305 305 304 302 301 300 300 298 294 289 285 283
251 255 259 255 241 239 250 262 269 270 267 263 263 267 270 274 275 276 278 279 280 281 281 283 284 286 287 288 289 290 293 298 305 311 315 319 320 316 316 321 322 323 326 327 327 326 323 317 311 304 297 293 292 292 292 293 294 296 298 302 307 311 312 309 306 305 303 301 300 300 300 301 302 302 302 302 300 300 299 299 298 295 290 285 282
250 253 253 250 245 247 259 267 270 271 269 265 263 265 268 273 275 275 277 278 278 278 278 279 279 282 284 287 289 292 296 300 305 310 314 318 316 312 314 318 318 320 324 325 325 325 323 317 311 305 301 298 296 295 294 293 295 295 298 303 307 307 303 299 298 297 296 295 296 297 298 298 299 300 301 302 301 300 300 298 297 295 291 288 285
247 246 245 247 248 251 259 265 269 270 270 268 266 265 265 265 266 268 269 270 271 272 272 274 276 280 283 287 290 293 296 300 304 309 313 315 311 308 311 314 315 319 322 324 324 324 322 317 312 308 303 300 296 294 293 293 294 295 298 303 303 297 291 290 291 292 293 293 295 295 296 297 298 299 300 302 301 300 298 296 293 291 289 286 285
244 242 239 243 249 253 255 258 264 266 266 267 268 268 266 263 262 262 264 266 268 270 272 274 277 280 284 287 290 292 295 299 304 308 312 311 306 305 309 311 314 318 322 323 322 322 320 317 314 309 305 300 295 292 292 293 293 294 296 296 292 287 286 288 290 291 292 293 295 295 296 297 298 298 299 300 299 296 294 292 289 287 285 284 282
240 242 241 241 246 251 247 246 256 261 262 265 267 269 269 269 269 270 272 273 274 275 276 278 280 282 286 288 290 293 297 300 304 308 310 306 302 305 307 309 313 318 322 321 320 319 318 317 315 310 305 300 295 293 293 293 293 293 292 290 287 287 288 290 290 291 293 294 296 296 298 299 299 298 298 297 295 293 291 289 287 285 283 282 281
234 240 243 242 244 247 245 247 255 259 260 263 266 268 270 272 274 276 278 279 279 279 279 281 283 285 287 289 291 295 298 301 304 307 306 302 301 304 305 307 312 318 320 318 317 317 317 318 315 310 305 300 296 294 294 294 293 291 289 289 289 290 291 292 291 292 294 296 298 298 299 300 300 299 298 297 295 293 291 290 288 286 284 282 281
231 236 238 240 242 244 246 252 258 260 261 264 265 267 269 272 275 277 278 279 280 280 282 284 285 287 288 289 292 296 298 301 303 304 302 299 300 301 302 305 310 317 317 315 315 316 316 317 314 308 303 299 297 296 295 294 292 291 290 290 291 291 292 294 294 295 297 298 299 299 299 299 300 299 299 297 295 294 293 292 292 291 291 290 288
232 236 235 235 240 244 248 254 259 263 266 266 266 266 266 268 271 273 274 275 277 279 281 283 284 285 287 290 293 295 297 299 301 301 299 298 299 299 300 303 310 315 313 311 313 314 314 314 311 305 300 298 298 297 295 294 292 293 292 292 293 293 294 296 296 298 299 300 300 299 298 298 300 299 297 295 293 292 292 293 294 295 295 295 294
231 235 235 236 241 245 249 253 259 263 265 265 266 267 266 267 268 270 270 271 273 275 278 280 282 285 288 292 294 295 296 297 298 297 297 297 296 296 298 301 309 312 309 308 310 311 312 312 310 304 299 297 296 294 293 293 293 294 294 294 295 295 296 297 298 299 300 299 298 297 297 297 297 295 291 289 289 290 291 293 294 295 295 295 295
235 236 238 242 248 249 249 253 257 260 263 266 269 270 270 269 268 268 268 269 271 273 276 279 282 286 289 292 294 294 294 294 294 294 295 294 293 294 295 298 306 309 306 306 308 309 310 310 308 304 299 294 291 291 292 292 293 294 296 297 297 298 299 301 301 300 299 297 296 295 295 294 291 286 285 285 287 290 292 294 295 295 295 295 296
243 244 245 248 251 251 253 256 257 260 265 269 271 273 274 273 272 270 270 271 273 275 278 280 282 285 288 291 293 293 293 291 290 291 293 293 292 292 291 295 303 307 305 306 307 307 308 308 307 304 298 292 290 291 292 294 296 298 299 299 300 302 303 303 302 300 299 298 297 295 292 288 284 282 283 286 289 292 295 297 297 296 296 296 296
245 248 249 249 250 252 257 259 260 263 267 269 271 272 273 275 276 276 275 276 277 278 278 279 280 283 287 290 293 293 292 289 288 290 292 292 291 289 289 293 301 306 306 306 306 305 305 306 306 303 298 293 292 293 294 298 301 302 301 301 303 305 305 304 303 303 303 302 300 295 289 283 282 284 287 290 293 296 298 299 298 298 298 298 298
242 243 245 248 250 253 255 257 259 264 267 270 273 274 274 274 275 275 276 278 278 277 277 278 281 285 287 290 293 293 290 287 287 289 292 292 289 288 289 293 301 307 308 306 305 304 304 305 305 303 299 296 295 295 296 301 304 303 301 302 305 306 305 305 305 305 305 302 299 295 289 287 289 292 294 296 297 298 299 300 300 300 301 300 300
243 244 246 248 250 251 251 254 258 262 266 270 273 275 276 276 274 274 275 276 277 277 277 280 283 286 287 290 292 290 287 287 288 290 292 290 288 288 290 293 300 307 307 305 304 304 304 304 304 303 301 298 296 296 297 301 303 302 301 303 306 307 307 306 305 302 299 298 296 296 295 296 297 298 299 299 300 301 302 302 303 303 303 302 301
244 246 248 249 250 250 252 255 258 262 267 269 271 275 277 277 276 276 277 279 280 280 281 282 284 285 287 290 290 288 286 287 289 291 292 289 287 289 290 292 299 305 305 303 303 303 303 303 303 302 302 299 297 295 296 299 301 300 300 304 307 308 307 303 298 295 292 292 293 296 298 299 300 301 301 302 303 303 304 304 304 304 304 303 301
244 245 246 248 249 250 253 256 259 264 267 268 270 274 276 277 278 279 283 286 285 283 283 284 285 286 288 289 288 286 286 288 291 292 290 287 287 288 288 291 297 302 303 301 301 301 301 301 302 301 300 298 295 293 294 297 298 299 301 305 308 309 305 298 292 290 289 289 292 295 297 298 299 301 301 302 303 303 303 303 303 303 303 302 300
241 243 244 245 248 250 253 257 260 264 266 267 271 274 275 275 277 279 285 287 286 285 285 286 287 287 288 289 288 287 287 290 292 292 289 287 286 286 286 290 295 299 300 300 299 299 299 300 300 299 298 295 292 291 293 295 296 298 302 305 307 307 303 295 291 288 288 290 292 294 296 298 300 301 302 304 304 305 305 304 303 303 303 301 299
233 239 241 243 245 249 253 257 261 264 266 267 270 272 273 274 276 279 283 285 285 285 286 287 288 289 290 290 289 289 289 291 291 289 286 285 285 285 286 290 293 296 298 299 299 298 298 299 298 298 296 292 289 290 291 293 294 298 302 304 305 306 302 296 293 291 292 293 295 297 300 303 305 307 308 310 310 309 308 307 305 303 301 300 298
233 238 241 243 246 249 252 255 257 260 263 265 267 269 271 274 277 280 283 284 284 284 286 287 288 289 290 290 291 291 291 290 289 285 283 284 285 286 288 290 292 295 299 299 297 296 296 296 296 297 295 291 289 289 289 290 293 297 300 301 302 304 302 299 297 296 296 297 298 301 305 308 310 312 314 316 316 315 312 308 305 302 300 298 297
238 242 244 246 249 250 250 250 253 256 259 262 264 266 270 273 276 280 282 282 282 283 286 288 288 288 288 290 292 292 290 288 285 283 283 284 286 287 288 290 294 297 299 297 294 293 292 293 294 294 293 291 289 287 287 289 292 295 297 297 299 300 299 299 299 298 298 298 300 303 307 309 311 313 316 319 321 321 319 315 311 308 305 303 302
238 241 243 246 249 251 250 250 250 252 255 258 260 263 267 271 275 279 279 278 278 282 287 288 287 286 287 291 294 291 287 284 284 284 285 286 287 288 289 292 296 298 297 294 291 289 288 289 291 292 292 291 289 287 287 288 290 293 294 294 296 295 293 295 297 298 298 299 301 304 306 310 313 316 318 320 320 320 320 319 317 315 312 310 309
234 237 239 242 247 252 254 255 255 256 258 259 261 263 266 270 274 276 275 273 275 282 287 287 285 283 285 292 294 290 285 284 285 286 287 288 289 290 292 294 296 296 294 290 287 287 285 285 288 291 292 291 290 288 287 288 289 290 291 292 293 292 290 291 293 295 296 299 302 305 308 311 313 315 316 317 317 317 317 317 317 315 313 311 309
236 238 240 242 246 251 255 257 259 260 262 264 265 266 268 270 271 272 271 271 275 281 284 284 281 279 284 291 292 288 285 285 286 287 289 289 290 291 292 293 294 292 289 284 283 283 282 282 285 289 291 292 291 290 289 288 287 288 289 290 291 291 289 289 290 292 295 298 301 303 306 308 309 311 312 313 313 314 315 315 315 314 312 309 307
240 242 243 245 247 249 251 254 256 257 260 263 261 261 265 267 267 269 270 272 275 279 281 280 277 276 282 287 287 285 284 286 287 288 289 289 290 291 291 291 290 287 281 278 279 279 279 279 283 286 289 290 290 290 289 287 286 286 286 288 290 291 290 289 289 292 295 298 299 300 301 303 305 306 307 308 310 311 313 313 313 312 311 310 308
242 241 242 244 246 247 248 250 252 256 260 262 259 258 263 266 267 269 271 273 275 276 276 275 273 275 279 282 282 282 283 285 286 287 288 289 290 290 289 289 287 281 276 274 277 278 278 279 281 285 287 288 288 288 287 286 285 284 285 287 289 290 290 290 291 293 295 297 297 296 297 299 301 303 304 306 308 310 311 311 311 311 311 310 309
241 241 241 243 246 247 247 248 251 254 258 260 261 262 266 269 271 272 272 273 274 274 272 270 270 273 276 277 277 279 282 283 284 286 287 289 289 288 287 286 282 276 273 273 276 277 277 278 281 283 285 286 286 285 285 285 284 284 285 287 289 290 290 291 292 293 294 295 294 293 293 296 298 300 303 305 307 308 309 309 310 310 310 309 308
242 245 246 247 248 250 251 252 254 257 259 261 263 266 269 272 274 275 274 273 273 272 270 269 269 271 273 274 275 277 279 280 283 285 287 288 288 287 285 282 278 274 273 274 276 277 277 278 280 282 283 284 284 284 284 284 284 284 286 288 289 290 290 291 293 293 293 294 293 292 292 294 297 300 302 304 305 307 308 308 309 309 309 308 307
242 246 249 251 253 254 256 257 257 259 262 264 266 267 269 270 272 273 273 272 272 271 270 270 269 270 272 273 274 276 277 279 283 285 286 287 287 285 283 279 276 274 275 276 277 277 278 278 279 281 282 283 283 283 283 284 285 285 287 289 290 290 290 291 292 294 295 294 293 292 292 294 298 300 302 303 305 306 307 307 307 307 307 306 306
238 241 245 250 254 253 252 252 255 259 263 265 266 267 267 268 269 270 270 269 269 269 269 269 270 270 272 274 275 276 278 281 283 284 284 284 284 282 280 278 277 277 277 278 279 279 279 279 279 280 281 283 283 283 284 285 285 286 287 289 290 290 291 291 292 294 295 294 293 292 292 295 298 299 301 303 304 306 306 306 306 306 306 306 306
237 238 240 246 251 252 250 251 254 259 263 266 268 270 270 270 270 270 270 270 270 270 271 271 271 273 275 276 278 279 280 282 282 282 281 281 281 280 279 279 279 280 280 280 280 280 280 280 280 280 281 283 284 285 285 285 286 286 287 288 290 291 291 291 292 294 294 294 292 291 292 295 297 300 302 303 304 305 305 305 304 305 305 306 306
237 236 237 240 246 251 255 258 260 262 265 268 270 271 271 271 271 272 274 274 274 274 274 274 274 275 277 278 280 281 281 282 281 280 279 279 279 279 279 280 281 281 281 281 282 282 282 281 280 280 281 283 285 285 285 286 286 287 287 288 289 290 291 291 291 293 294 293 292 291 292 295 298 301 302 303 304 305 304 303 304 304 306 307 307
237 236 236 238 242 248 253 258 262 265 266 268 269 270 271 271 273 275 276 277 277 277 277 276 277 278 279 280 281 281 281 280 279 278 278 278 278 279 280 280 281 281 282 282 282 282 282 281 280 280 281 283 285 285 285 286 287 287 288 289 289 289 289 290 290 291 291 292 291 291 292 295 299 301 302 302 303 303 303 303 304 305 306 307 307
239 239 240 241 244 248 253 257 261 263 265 267 269 270 271 273 275 276 277 278 278 278 278 278 279 279 280 280 280 280 279 278 277 277 277 277 278 279 280 280 281 282 282 282 282 282 282 281 280 280 281 283 284 285 285 286 286 287 288 288 289 289 289 289 289 289 289 290 290 290 293 296 299 301 301 301 302 302 302 303 304 306 307 307 307
244 244 245 246 248 251 255 258 261 263 265 267 269 271 272 274 275 275 276 277 278 278 278 279 280 280 280 280 279 278 277 277 276 276 277 277 278 279 280 281 281 282 282 283 283 283 282 282 281 281 282 283 284 285 285 285 286 286 287 288 288 289 289 289 289 288 289 289 289 291 294 297 299 301 301 302 302 303 303 304 305 306 307 307 306
249 250 250 251 253 256 258 261 263 266 268 269 271 272 273 273 273 274 275 276 276 277 278 279 280 280 280 279 278 278 277 276 276 275 276 277 278 279 280 281 281 282 282 283 283 283 283 282 282 282 282 283 284 285 286 286 287 287 288 289 289 289 289 289 288 288 288 289 291 294 297 299 300 301 302 302 303 303 304 305 306 306 306 306 305
251 253 255 256 257 260 261 263 266 268 270 271 271 272 272 271 272 273 274 275 276 277 278 279 279 279 279 278 278 278 277 276 275 275 275 276 278 279 280 281 281 281 282 282 282 282 282 282 282 283 284 285 286 287 287 288 288 289 290 290 290 290 289 289 289 289 290 291 294 297 299 300 300 301 302 302 303 303 304 304 305 304 304 304 304
253 255 258 260 261 263 265 266 268 269 270 270 271 271 270 271 271 272 274 275 277 278 278 279 280 280 280 279 278 277 276 276 276 276 276 277 277 278 279 279 280 280 281 281 281 280 280 281 282 283 284 286 286 287 288 288 289 290 290 290 290 289 289 289 289 290 292 294 296 298 299 299 300 300 300 301 301 302 302 303 303 303 303 302 303
254 255 258 261 263 264 266 267 268 269 269 269 270 270 270 270 271 273 275 276 277 278 279 279 279 279 279 278 277 276 276 276 276 276 275 276 276 276 276 277 277 278 278 279 279 279 280 281 282 283 285 286 287 287 288 288 288 288 288 288 287 287 287 288 289 290 292 294 296 297 297 298 298 298 299 299 300 301 301 301 302 301 301 301 303
Height
10757 10757 10758 10758 10758 10758 10758 10759 10760 10762 10763 10764 10765 10765 10764 10764 10765 10767 10768 10768 10768 10769 10770 10770 10770 10769 10769 10769 10769 10768 10767 10766 10764 10762 10759 10757 10756 10754 10752 10750 10748 10747 10745 10743 10742 10740 10738 10737 10735 10734 10733 10732 10732 10731 10731 10730 10729 10729 10728 10727 10726 10726 10725 10724 10724 10723 10721 10720 10719 10718 10716 10715 10714 10713 10712 10712 10712 10711 10711 10711 10711 10711 10712 10712 10713
10754 10754 10755 10755 10756 10756 10756 10756 10757 10759 10760 10761 10762 10763 10762 10762 10764 10765 10765 10765 10766 10767 10768 10768 10768 10767 10767 10767 10767 10766 10765 10764 10762 10760 10758 10755 10753 10752 10749 10747 10745 10743 10742 10741 10739 10738 10736 10735 10733 10732 10731 10730 10730 10729 10729 10728 10727 10727 10726 10725 10724 10724 10723 10723 10722 10721 10720 10719 10717 10716 10715 10714 10713 10713 10712 10711 10711 10711 10710 10710 10710 10710 10711 10711 10711
10751 10751 10752 10753 10754 10754 10754 10754 10755 10756 10758 10758 10759 10760 10760 10761 10762 10763 10763 10763 10764 10765 10765 10766 10766 10765 10765 10765 10764 10763 10762 10761 10760 10758 10756 10753 10751 10749 10747 10744 10742 10740 10739 10737 10736 10735 10734 10733 10731 10730 10729 10728 10727 10727 10726 10726 10725 10724 10724 10723 10722 10722 10721 10721 10720 10719 10718 10717 10716 10715 10714 10713 10713 10712 10711 10711 10710 10710 10709 10709 10709 10709 10709 10710 10710
10748 10748 10749 10750 10752 10752 10752 10752 10753 10754 10756 10756 10756 10757 10758 10760 10761 10761 10761 10761 10762 10762 10763 10763 10763 10763 10763 10763 10762 10761 10760 10759 10757 10755 10753 10751 10749 10747 10744 10742 10740 10738 10736 10735 10734 10733 10732 10730 10729 10727 10727 10726 10725 10725 10724 10723 10722 10722 10721 10721 10720 10720 10720 10719 10718 10718 10717 10716 10715 10714 10713 10712 10712 10711 10710 10710 10709 10709 10708 10708 10708 10708 10708 10708 10709
10746 10746 10747 10748 10749 10750 10750 10751 10751 10752 10753 10754 10755 10756 10757 10758 10758 10758 10758 10759 10759 10760 10761 10761 10761 10761 10761 10760 10759 10759 10757 10756 10754 10753 10751 10749 10746 10744 10742 10739 10737 10735 10734 10733 10732 10730 10729 10728 10726 10725 10724 10724 10723 10722 10722 10721 10720 10720 10719 10719 10719 10718 10718 10717 10717 10716 10715 10714 10713 10713 10712 10711 10711 10710 10710 10709 10708 10707 10707 10707 10707 10707 10707 10707 10707
10744 10745 10745 10745 10746 10747 10748 10749 10749 10750 10751 10752 10753 10754 10755 10756 10756 10756 10756 10757 10757 10758 10758 10759 10759 10759 10758 10758 10757 10756 10755 10753 10752 10750 10749 10746 10744 10742 10740 10737 10735 10734 10732 10730 10729 10727 10726 10725 10724 10722 10722 10722 10721 10720 10719 10719 10718 10718 10717 10717 10717 10716 10716 10715 10715 10714 10713 10713 10712 10711 10711 10710 10710 10709 10709 10708 10708 10707 10706 10706 10705 10705 10705 10706 10706
10743 10743 10743 10744 10745 10745 10745 10746 10747 10748 10749 10750 10751 10752 10753 10754 10754 10754 10754 10755 10755 10755 10756 10756 10756 10756 10756 10756 10755 10753 10752 10751 10749 10748 10746 10744 10742 10740 10737 10735 10733 10731 10729 10727 10726 10725 10723 10722 10721 10720 10719 10719 10719 10718 10717 10717 10716 10716 10715 10715 10715 10714 10714 10713 10712 10712 10711 10711 10710 10710 10710 10709 10709 10708 10708 10707 10707 10706 10705 10705 10704 10704 10704 10704 10704
10741 10741 10741 10743 10744 10744 10743 10743 10744 10745 10746 10747 10748 10749 10750 10752 10752 10752 10753 10753 10753 10753 10753 10753 10754 10754 10754 10753 10752 10751 10749 10748 10746 10745 10743 10741 10739 10737 10735 10733 10731 10729 10727 10724 10723 10722 10720 10719 10718 10717 10717 10716 10716 10716 10715 10715 10714 10714 10713 10713 10712 10712 10711 10711 10710 10710 10709 10709 10708 10708 10708 10708 10707 10707 10707 10706 10706 10705 10704 10704 10703 10703 10702 10702 10702
10739 10739 10739 10741 10742 10743 10742 10741 10741 10743 10744 10745 10746 10746 10748 10749 10750 10751 10751 10751 10751 10750 10750 10751 10751 10751 10751 10750 10749 10748 10746 10745 10743 10742 10740 10738 10736 10734 10732 10730 10728 10726 10724 10722 10720 10719 10717 10716 10715 10715 10714 10714 10714 10714 10713 10713 10712 10712 10711 10711 10710 10710 10709 10709 10708 10708 10707 10707 10706 10706 10706 10706 10706 10706 10705 10705 10704 10704 10703 10703 10702 10701 10701 10700 10700
10737 10737 10737 10738 10739 10741 10741 10739 10738 10740 10741 10742 10743 10744 10745 10747 10748 10749 10749 10749 10749 10748 10748 10748 10748 10748 10747 10747 10746 10745 10743 10742 10740 10739 10737 10735 10733 10730 10728 10726 10724 10723 10721 10719 10718 10716 10714 10713 10712 10712 10712 10711 10711 10711 10711 10710 10710 10709 10709 10708 10708 10708 10707 10707 10706 10706 10705 10705 10704 10704 10704 10704 10704 10704 10704 10703 10703 10702 10702 10701 10700 10700 10699 10699 10698
10734 10735 10735 10736 10737 10738 10739 10737 10736 10737 10739 10740 10741 10742 10743 10745 10746 10746 10746 10747 10747 10746 10746 10746 10745 10745 10745 10744 10743 10742 10741 10739 10738 10736 10734 10731 10729 10726 10724 10722 10721 10720 10719 10717 10715 10713 10712 10710 10710 10709 10709 10709 10709 10709 10708 10708 10707 10707 10706 10706 10706 10705 10705 10704 10704 10703 10703 10703 10702 10702 10702 10702 10702 10702 10702 10701 10701 10700 10699 10699 10698 10697 10697 10696 10696
10731 10731 10732 10734 10735 10736 10736 10736 10734 10735 10736 10737 10738 10739 10741 10742 10743 10743 10744 10744 10744 10744 10744 10743 10743 10742 10742 10741 10740 10739 10738 10737 10735 10733 10730 10728 10726 10723 10721 10719 10718 10717 10715 10714 10712 10710 10709 10708 10707 10707 10707 10707 10707 10706 10706 10705 10705 10704 10704 10704 10703 10703 10702 10701 10701 10701 10701 10700 10700 10700 10700 10700 10700 10699 10699 10698 10698 10697 10697 10696 10695 10695 10694 10693 10693
10729 10729 10730 10732 10733 10734 10735 10734 10733 10733 10734 10735 10736 10737 10739 10740 10740 10740 10740 10741 10741 10741 10741 10740 10740 10739 10739 10739 10738 10736 10735 10734 10732 10730 10728 10726 10724 10720 10717 10716 10715 10714 10713 10712 10710 10708 10707 10706 10705 10705 10705 10705 10704 10704 10703 10702 10702 10702 10701 10701 10701 10700 10699 10699 10698 10698 10698 10698 10698 10698 10697 10697 10697 10696 10696 10695 10695 10694 10694 10693 10693 10692 10691 10690 10690
10727 10727 10727 10728 10730 10731 10733 10732 10731 10731 10731 10732 10733 10734 10736 10737 10737 10737 10737 10737 10738 10738 10738 10738 10737 10736 10736 10736 10735 10734 10733 10732 10730 10728 10726 10724 10722 10718 10715 10714 10713 10712 10711 10710 10708 10706 10705 10704 10703 10703 10703 10702 10702 10701 10701 10700 10700 10699 10699 10698 10698 10697 10697 10696 10696 10696 10696 10695 10695 10694 10694 10694 10693 10693 10692 10692 10691 10691 10690 10690 10689 10688 10688 10687 10687
10724 10724 10724 10724 10726 10729 10730 10728 10728 10728 10728 10729 10730 10731 10733 10734 10734 10733 10734 10734 10735 10735 10735 10735 10735 10734 10733 10733 10732 10731 10730 10729 10727 10725 10723 10721 10719 10717 10715 10714 10713 10711 10709 10708 10706 10704 10703 10702 10701 10701 10700 10699 10699 10698 10698 10697 10697 10696 10696 10695 10695 10695 10695 10694 10694 10694 10693 10692 10692 10691 10691 10690 10689 10689 10688 10688 10687 10687 10686 10685 10685 10685 10684 10684 10683
10719 10719 10719 10720 10722 10727 10729 10727 10725 10725 10725 10726 10727 10728 10730 10731 10731 10731 10731 10732 10732 10732 10732 10732 10732 10731 10730 10730 10729 10728 10727 10725 10724 10722 10720 10719 10717 10715 10714 10713 10711 10710 10708 10705 10703 10702 10701 10700 10699 10698 10697 10697 10696 10696 10695 10695 10694 10694 10693 10693 10693 10693 10692 10692 10691 10690 10690 10689 10688 10688 10687 10686 10686 10685 10684 10684 10683 10683 10682 10681 10681 10681 10680 10680 10680
10714 10715 10716 10717 10718 10723 10727 10725 10722 10722 10722 10723 10724 10725 10727 10727 10728 10728 10728 10729 10729 10729 10729 10729 10729 10728 10727 10726 10725 10725 10724 10722 10721 10719 10717 10715 10714 10712 10711 10710 10709 10708 10705 10703 10701 10699 10698 10697 10696 10695 10695 10694 10694 10693 10693 10692 10692 10691 10691 10691 10690 10690 10690 10689 10688 10687 10686 10685 10685 10684 10683 10683 10682 10682 10681 10680 10680 10679 10678 10678 10677 10677 10676 10676 10676
10710 10711 10713 10714 10715 10717 10721 10721 10719 10719 10720 10720 10721 10722 10723 10724 10724 10724 10725 10725 10725 10725 10725 10726 10726 10725 10724 10723 10722 10721 10720 10718 10717 10715 10713 10712 10711 10709 10708 10707 10706 10705 10703 10700 10699 10697 10696 10694 10693 10693 10692 10692 10691 10691 10690 10690 10689 10688 10688 10688 10688 10687 10686 10686 10685 10684 10683 10682 10681 10680 10680 10679 10679 10678 10677 10676 10676 10675 10674 10674 10673 10673 10672 10672 10672
10706 10707 10709 10711 10711 10711 10714 10716 10715 10716 10717 10717 10718 10718 10719 10719 10719 10720 10721 10721 10721 10721 10722 10722 10722 10721 10720 10719 10718 10717 10716 10714 10713 10711 10710 10708 10707 10706 10705 10704 10703 10702 10700 10698 10696 10695 10693 10691 10690 10690 10689 10689 10689 10688 10687 10687 10686 10686 10685 10685 10685 10684 10683 10683 10682 10681 10680 10679 10678 10677 10676 10675 10674 10674 10673 10672 10671 10671 10670 10670 10669 10669 10669 10668 10668
10703 10704 10706 10708 10708 10707 10709 10710 10712 10713 10713 10713 10714 10715 10715 10715 10715 10716 10717 10717 10717 10717 10718 10718 10718 10717 10716 10715 10714 10713 10711 10710 10708 10707 10706 10704 10703 10703 10702 10701 10700 10699 10697 10695 10694 10692 10690 10689 10688 10687 10687 10686 10686 10685 10685 10684 10684 10683 10683 10682 10681 10681 10680 10680 10679 10678 10677 10676 10675 10673 10671 10671 10670 10669 10669 10668 10667 10667 10666 10666 10666 10665 10665 10665 10664
10700 10700 10702 10704 10704 10704 10705 10706 10708 10709 10709 10710 10710 10711 10711 10711 10711 10712 10713 10713 10714 10714 10714 10715 10714 10713 10712 10711 10710 10708 10707 10705 10704 10703 10702 10700 10700 10699 10699 10698 10697 10696 10694 10692 10691 10689 10688 10686 10686 10685 10684 10684 10683 10683 10682 10681 10681 10680 10680 10679 10678 10678 10677 10677 10676 10674 10674 10672 10671 10670 10668 10667 10666 10665 10665 10664 10664 10664 10663 10663 10662 10662 10662 10661 10661
10696 10697 10699 10701 10701 10701 10701 10702 10704 10705 10706 10706 10706 10707 10707 10707 10707 10708 10709 10710 10710 10711 10711 10711 10710 10709 10708 10707 10706 10704 10703 10701 10700 10699 10698 10697 10696 10696 10696 10695 10694 10692 10690 10689 10688 10687 10685 10684 10683 10682 10682 10681 10681 10680 10680 10679 10678 10678 10677 10676 10675 10674 10673 10673 10672 10671 10670 10669 10667 10666 10665 10664 10663 10662 10661 10661 10661 10660 10660 10660 10659 10659 10658 10658 10658
10692 10693 10695 10697 10698 10698 10698 10699 10701 10702 10703 10703 10703 10703 10703 10703 10704 10704 10705 10705 10706 10707 10707 10707 10706 10705 10704 10703 10701 10700 10699 10698 10697 10695 10694 10693 10693 10693 10693 10692 10691 10689 10687 10686 10685 10684 10682 10681 10680 10679 10679 10679 10678 10677 10677 10676 10676 10675 10674 10673 10672 10671 10670 10669 10669 10667 10666 10665 10664 10663 10662 10661 10660 10659 10658 10658 10658 10657 10657 10656 10656 10655 10655 10654 10654
10688 10690 10692 10693 10694 10695 10695 10696 10698 10698 10699 10699 10699 10699 10699 10699 10699 10700 10700 10701 10702 10702 10702 10702 10702 10701 10700 10699 10697 10696 10695 10694 10693 10692 10691 10690 10690 10690 10690 10689 10688 10687 10684 10683 10682 10681 10679 10678 10677 10676 10676 10676 10675 10675 10674 10673 10672 10671 10670 10669 10668 10667 10666 10665 10664 10663 10662 10661 10661 10660 10659 10658 10657 10656 10656 10655 10654 10654 10653 10653 10652 10652 10651 10651 10650
10685 10685 10687 10688 10690 10691 10692 10693 10693 10694 10694 10694 10695 10695 10695 10695 10696 10696 10696 10697 10698 10698 10698 10698 10698 10697 10696 10695 10694 10693 10692 10691 10690 10688 10687 10687 10687 10687 10686 10686 10685 10684 10681 10679 10679 10677 10676 10675 10674 10674 10673 10672 10672 10672 10671 10670 10669 10668 10667 10666 10665 10664 10662 10661 10660 10659 10659 10658 10657 10656 10655 10655 10654 10653 10653 10652 10651 10651 10650 10649 10649 10648 10647 10647 10646
10680 10681 10682 10684 10685 10687 10687 10688 10689 10689 10689 10689 10690 10691 10692 10692 10692 10693 10693 10694 10694 10694 10694 10693 10693 10693 10692 10691 10690 10689 10688 10687 10686 10685 10684 10684 10684 10683 10683 10682 10682 10680 10678 10676 10675 10674 10673 10672 10671 10671 10670 10670 10669 10669 10668 10667 10666 10665 10664 10663 10662 10661 10659 10658 10657 10656 10655 10654 10654 10653 10652 10652 10651 10650 10650 10649 10648 10647 10646 10645 10644 10644 10643 10642 10641
10676 10677 10678 10679 10681 10682 10683 10683 10684 10685 10686 10685 10686 10687 10688 10688 10689 10690 10690 10691 10691 10691 10690 10689 10689 10688 10688 10687 10686 10685 10684 10683 10682 10681 10680 10680 10680 10680 10680 10679 10678 10677 10674 10672 10671 10670 10669 10668 10668 10667 10667 10666 10666 10665 10665 10664 10663 10662 10661 10660 10659 10657 10656 10655 10654 10653 10652 10652 10651 10650 10650 10649 10648 10647 10646 10645 10644 10643 10641 10640 10640 10639 10638 10637 10636
10672 10673 10674 10675 10676 10677 10678 10678 10680 10682 10683 10682 10682 10683 10684 10684 10685 10686 10686 10687 10687 10687 10687 10686 10685 10684 10683 10683 10682 10681 10680 10679 10678 10677 10677 10676 10676 10676 10676 10675 10675 10673 10671 10668 10667 10667 10666 10665 10664 10663 10663 10663 10662 10662 10662 10661 10660 10659 10658 10657 10655 10654 10653 10652 10651 10650 10649 10649 10648 10647 10646 10645 10644 10643 10642 10640 10639 10638 10637 10636 10634 10633 10632 10631 10630
10668 10669 10670 10671 10671 10672 10673 10674 10675 10678 10680 10678 10678 10679 10680 10680 10681 10681 10682 10682 10683 10683 10683 10682 10681 10680 10679 10678 10678 10677 10676 10675 10674 10673 10673 10672 10672 10673 10673 10672 10671 10669 10667 10665 10663 10663 10662 10661 10660 10660 10659 10659 10659 10658 10658 10657 10657 10656 10655 10653 10652 10650 10649 10649 10648 10647 10646 10645 10644 10644 10643 10642 10641 10639 10638 10637 10635 10634 10632 10631 10629 10628 10627 10626 10625
10663 10663 10664 10665 10666 10667 10668 10669 10671 10674 10675 10675 10675 10676 10676 10676 10676 10676 10677 10677 10678 10678 10678 10678 10677 10676 10675 10674 10674 10672 10671 10671 10670 10670 10669 10669 10669 10669 10669 10668 10667 10665 10663 10661 10660 10659 10658 10658 10657 10656 10655 10655 10655 10655 10654 10654 10653 10652 10651 10650 10648 10647 10646 10645 10644 10643 10643 10642 10641 10640 10639 10638 10637 10635 10634 10632 10631 10629 10627 10626 10625 10623 10622 10621 10620
10655 10656 10658 10660 10661 10662 10663 10665 10666 10668 10670 10671 10671 10672 10672 10672 10672 10672 10672 10672 10672 10673 10673 10673 10672 10671 10670 10670 10669 10668 10667 10667 10667 10666 10665 10665 10666 10666 10665 10664 10663 10661 10659 10657 10656 10655 10654 10654 10653 10652 10652 10652 10651 10651 10650 10650 10649 10648 10647 10646 10645 10644 10643 10642 10641 10640 10639 10638 10637 10636 10635 10634 10633 10631 10630 10628 10626 10625 10623 10622 10620 10619 10618 10617 10616
10650 10652 10654 10655 10656 10657 10659 10660 10662 10663 10665 10666 10667 10667 10668 10668 10667 10667 10667 10667 10667 10668 10668 10668 10667 10666 10665 10665 10664 10663 10663 10663 10663 10662 10661 10661 10661 10661 10661 10660 10658 10656 10655 10654 10652 10651 10651 10650 10649 10649 10648 10648 10647 10647 10646 10646 10645 10644 10643 10642 10641 10640 10639 10638 10637 10636 10635 10634 10633 10632 10631 10630 10629 10627 10626 10624 10622 10621 10619 10618 10616 10615 10614 10613 10612
10646 10648 10649 10650 10650 10652 10653 10655 10657 10658 10659 10660 10661 10662 10663 10663 10663 10663 10663 10662 10662 10663 10663 10663 10662 10661 10660 10660 10659 10659 10658 10658 10658 10658 10657 10657 10657 10657 10656 10655 10654 10652 10650 10649 10648 10647 10647 10646 10645 10645 10644 10644 10644 10643 10643 10642 10641 10640 10639 10638 10637 10636 10635 10634 10633 10632 10631 10630 10629 10628 10627 10626 10624 10623 10621 10619 10618 10616 10615 10613 10612 10611 10609 10608 10606
10641 10643 10644 10644 10644 10645 10648 10650 10652 10653 10654 10655 10656 10657 10658 10658 10658 10658 10658 10658 10658 10658 10658 10658 10657 10656 10655 10656 10655 10655 10654 10654 10654 10653 10653 10652 10652 10652 10651 10650 10649 10648 10646 10645 10644 10643 10643 10642 10642 10641 10641 10640 10640 10639 10639 10638 10637 10636 10635 10634 10633 10632 10631 10630 10629 10628 10627 10626 10625 10624 10622 10621 10619 10617 10615 10614 10612 10610 10609 10608 10606 10605 10603 10602 10600
10636 10638 10639 10640 10640 10641 10642 10645 10646 10647 10648 10650 10651 10653 10654 10654 10654 10653 10653 10653 10653 10653 10653 10653 10652 10651 10651 10651 10651 10650 10650 10650 10649 10649 10648 10647 10647 10647 10646 10646 10644 10643 10642 10641 10640 10639 10639 10639 10638 10638 10637 10636 10636 10635 10634 10634 10633 10632 10631 10630 10629 10628 10626 10625 10624 10623 10622 10621 10620 10618 10617 10615 10613 10611 10609 10608 10606 10605 10603 10602 10600 10599 10597 10595 10593
10631 10633 10634 10635 10636 10636 10637 10638 10640 10641 10642 10644 10646 10647 10649 10649 10649 10649 10649 10649 10649 10649 10649 10649 10648 10648 10647 10647 10647 10646 10645 10645 10645 10644 10644 10643 10642 10642 10641 10641 10640 10638 10637 10636 10636 10635 10635 10635 10635 10634 10633 10632 10632 10631 10630 10629 10628 10627 10626 10625 10624 10623 10622 10621 10620 10618 10617 10616 10615 10613 10612 10610 10608 10606 10604 10602 10600 10598 10597 10595 10594 10592 10590 10588 10586
10626 10627 10629 10629 10631 10632 10632 10633 10633 10634 10637 10639 10640 10641 10643 10643 10643 10643 10644 10644 10644 10644 10644 10644 10644 10644 10643 10643 10642 10641 10640 10640 10640 10639 10639 10638 10637 10636 10636 10636 10635 10634 10633 10632 10632 10631 10631 10631 10631 10630 10629 10628 10627 10627 10626 10625 10624 10623 10621 10620 10619 10618 10617 10616 10614 10613 10612 10611 10610 10608 10606 10604 10602 10600 10598 10596 10594 10592 10590 10589 10587 10585 10583 10581 10579
10620 10621 10622 10623 10625 10628 10629 10628 10628 10629 10631 10633 10634 10635 10636 10637 10637 10638 10639 10639 10639 10639 10639 10640 10640 10639 10638 10638 10637 10636 10636 10635 10635 10634 10634 10633 10632 10631 10631 10631 10630 10630 10629 10628 10628 10627 10627 10627 10626 10626 10625 10624 10623 10622 10621 10620 10619 10618 10616 10615 10614 10613 10611 10610 10609 10608 10607 10606 10604 10602 10600 10598 10596 10594 10591 10589 10587 10585 10583 10581 10579 10577 10575 10573 10571
10615 10615 10616 10618 10620 10622 10624 10624 10624 10624 10625 10627 10628 10629 10630 10630 10631 10632 10633 10633 10633 10633 10634 10634 10634 10633 10633 10633 10632 10631 10631 10631 10630 10629 10629 10628 10627 10626 10626 10626 10626 10626 10625 10624 10624 10623 10623 10622 10621 10621 10620 10619 10618 10617 10617 10616 10614 10612 10611 10610 10609 10607 10606 10605 10604 10603 10601 10600 10598 10596 10594 10592 10589 10586 10584 10582 10580 10578 10576 10573 10571 10568 10566 10564 10562
10610 10610 10611 10613 10614 10616 10618 10619 10619 10619 10620 10621 10622 10623 10624 10624 10625 10626 10627 10627 10628 10628 10628 10629 10628 10628 10627 10627 10627 10626 10626 10626 10625 10624 10623 10623 10622 10621 10621 10621 10621 10621 10621 10620 10619 10619 10618 10617 10616 10616 10615 10614 10613 10612 10611 10610 10609 10607 10605 10604 10603 10602 10599 10598 10598 10597 10595 10594 10592 10589 10586 10584 10581 10579 10576 10574 10572 10571 10568 10565 10562 10559 10557 10555 10553
10606 10605 10605 10606 10608 10610 10612 10614 10614 10614 10614 10615 10616 10617 10618 10619 10620 10621 10622 10622 10623 10624 10624 10623 10623 10622 10622 10621 10621 10621 10621 10620 10620 10619 10618 10617 10617 10616 10616 10616 10616 10616 10616 10615 10615 10614 10613 10613 10612 10611 10610 10609 10607 10606 10605 10604 10603 10601 10599 10598 10597 10596 10593 10591 10590 10590 10588 10586 10584 10581 10578 10577 10574 10571 10569 10566 10563 10563 10560 10556 10553 10551 10549 10546 10543
10601 10600 10599 10601 10604 10606 10607 10608 10608 10608 10609 10610 10610 10611 10613 10614 10614 10615 10616 10617 10618 10619 10619 10619 10618 10617 10617 10616 10615 10615 10615 10615 10614 10614 10613 10612 10611 10611 10611 10611 10611 10610 10610 10610 10610 10609 10608 10607 10607 10605 10604 10604 10602 10600 10599 10598 10596 10595 10593 10591 10590 10589 10587 10583 10582 10582 10582 10580 10577 10573 10570 10570 10568 10564 10561 10557 10555 10554 10552 10548 10545 10542 10539 10537 10534
10595 10596 10596 10597 10599 10600 10601 10602 10602 10602 10603 10604 10605 10606 10607 10608 10609 10610 10610 10611 10612 10613 10613 10613 10612 10612 10611 10611 10610 10610 10610 10609 10608 10608 10607 10607 10606 10606 10605 10605 10605 10605 10605 10605 10604 10603 10602 10601 10600 10599 10598 10598 10597 10595 10593 10592 10590 10588 10586 10584 10582 10581 10579 10576 10573 10573 10575 10574 10570 10566 10562 10561 10561 10558 10553 10549 10546 10545 10542 10539 10536 10533 10530 10527 10524
10590 10591 10593 10593 10594 10594 10595 10596 10596 10597 10598 10599 10600 10601 10602 10603 10604 10604 10605 10605 10605 10605 10606 10606 10606 10606 10605 10605 10605 10604 10603 10603 10602 10602 10601 10601 10601 10601 10600 10600 10599 10599 10599 10598 10598 10597 10596 10595 10593 10592 10591 10591 10591 10589 10586 10585 10583 10581 10579 10577 10575 10573 10571 10568 10565 10563 10564 10565 10564 10560 10554 10551 10551 10549 10544 10539 10538 10536 10532 10529 10526 10523 10520 10517 10513
10584 10586 10588 10589 10589 10589 10589 10590 10590 10591 10592 10594 10594 10595 10596 10598 10598 10598 10599 10599 10598 10598 10599 10599 10599 10599 10600 10600 10599 10598 10597 10596 10596 10595 10595 10595 10595 10595 10595 10595 10594 10594 10593 10592 10591 10590 10589 10588 10587 10586 10584 10584 10583 10582 10580 10577 10576 10574 10572 10570 10568 10566 10564 10561 10558 10556 10555 10555 10555 10553 10547 10542 10541 10540 10534 10530 10529 10527 10523 10519 10516 10512 10509 10505 10502
10579 10581 10583 10583 10584 10584 10584 10585 10585 10585 10586 10588 10588 10589 10590 10591 10592 10592 10592 10592 10592 10592 10592 10592 10593 10594 10594 10594 10594 10593 10592 10591 10590 10589 10589 10589 10589 10589 10589 10589 10588 10587 10586 10585 10584 10583 10582 10581 10580 10579 10577 10577 10576 10575 10573 10571 10569 10567 10565 10564 10562 10560 10557 10554 10551 10549 10547 10546 10546 10546 10542 10535 10533 10532 10526 10521 10520 10517 10513 10509 10505 10501 10498 10494 10491
10574 10576 10576 10576 10578 10578 10579 10579 10579 10580 10580 10581 10582 10583 10584 10585 10585 10584 10585 10586 10586 10586 10586 10586 10587 10587 10588 10588 10588 10588 10587 10586 10585 10584 10583 10582 10582 10582 10582 10582 10581 10580 10579 10578 10577 10576 10575 10574 10573 10572 10570 10569 10568 10567 10566 10564 10562 10560 10558 10556 10554 10552 10550 10547 10543 10540 10538 10537 10536 10537 10535 10528 10523 10521 10517 10512 10509 10505 10501 10497 10493 10488 10485 10482 10479
10568 10569 10569 10570 10571 10572 10572 10573 10573 10573 10574 10575 10576 10576 10577 10577 10577 10577 10577 10578 10579 10579 10580 10581 10581 10581 10581 10581 10581 10581 10581 10580 10579 10578 10577 10576 10575 10575 10574 10574 10574 10573 10572 10571 10570 10569 10568 10566 10565 10564 10563 10561 10559 10558 10557 10555 10553 10551 10550 10548 10546 10543 10541 10539 10535 10531 10528 10526 10525 10524 10523 10518 10513 10510 10506 10501 10497 10493 10488 10484 10480 10476 10472 10469 10467
10564 10563 10562 10563 10565 10565 10566 10566 10566 10567 10568 10568 10568 10568 10569 10570 10570 10570 10570 10570 10572 10572 10573 10574 10575 10575 10575 10575 10574 10574 10574 10573 10573 10572 10571 10570 10568 10567 10567 10567 10566 10566 10565 10564 10563 10562 10560 10558 10557 10555 10553 10552 10550 10549 10547 10545 10542 10540 10539 10537 10535 10533 10531 10529 10526 10522 10518 10515 10513 10511 10510 10506 10501 10498 10495 10491 10486 10483 10478 10473 10468 10465 10461 10458 10455
10559 10558 10557 10557 10558 10559 10559 10560 10560 10560 10560 10560 10560 10560 10561 10561 10562 10562 10561 10562 10563 10564 10565 10567 10568 10567 10568 10568 10568 10568 10567 10566 10565 10565 10564 10563 10562 10561 10560 10560 10559 10559 10558 10557 10556 10555 10553 10551 10549 10547 10545 10544 10542 10540 10538 10536 10533 10530 10528 10526 10523 10521 10520 10518 10515 10512 10508 10505 10503 10500 10498 10495 10491 10488 10486 10482 10479 10475 10470 10465 10460 10455 10451 10448 10444
10554 10553 10552 10552 10552 10552 10552 10552 10552 10551 10551 10551 10551 10551 10552 10553 10553 10553 10553 10554 10554 10555 10557 10559 10560 10560 10561 10561 10560 10560 10559 10559 10558 10557 10557 10557 10556 10555 10555 10554 10554 10553 10552 10551 10549 10547 10546 10544 10542 10540 10538 10537 10535 10533 10530 10528 10526 10523 10520 10518 10515 10513 10511 10509 10507 10504 10501 10497 10494 10492 10489 10486 10483 10479 10477 10474 10471 10468 10462 10457 10452 10447 10442 10437 10432